Regional Weather Roundup
Issued by NWS Charleston, SC

Current Version | Previous Version | Graphics & Text | Print | Product List | Glossary On
Versions: 1 2 3 4 5 6 7 8 9 10 11 12 13 14 15 16 17 18 19 20 21 22 23 24 25 26 27 28 29 30 31 32 33 34 35 36 37 38 39 40 41 42 43 44 45 46 47 48 49 50
000
ASUS42 KCHS 032027
RWRCHS

REGIONAL WEATHER ROUNDUP
NATIONAL WEATHER SERVICE CHARLESTON SC
400 PM EDT MON AUG 03 2015

NOTE: "FAIR" INDICATES FEW OR NO CLOUDS BELOW 12,000 FEET WITH NO
SIGNIFICANT WEATHER AND/OR OBSTRUCTIONS TO VISIBILITY.

NOT ALL STATIONS ARE QUALITY CONTROLLED BY THE NATIONAL
WEATHER SERVICE. USE DATA WITH CAUTION...ESPECIALLY
DEWPOINT OBSERVATIONS.

SCZ027-030-031-034>040-042>050-032100-
...SOUTHEAST SOUTH CAROLINA...

CITY           SKY/WX    TMP DP  RH WIND       PRES   REMARKS
N CHARLESTON   CLOUDY    83  72  69 S7        29.94R
WATERFRONT PRK   N/A     83  76  79 S9        29.90F HX  91
MOUNT PLEASANT FAIR      84  75  74 S5        29.94R HX  92
JOHNS ISLAND   MOCLDY    82  75  78 S5        29.94R
PINOPOLIS      NOT AVBL
MONCKS CORNER  FAIR      84  72  65 S6        29.94S
SUMMERVILLE    CLOUDY    81  73  78 SE5       29.93F
BEAUFORT MCAS  CLOUDY    82  75  79 SE3       29.91S
BEAUFORT ARPT  CLOUDY    81  73  78 CALM      29.91R HAZE
HILTON HEAD IS MOSUNNY   82  73  74 SE5       29.91F
WALTERBORO     RAIN      77  73  88 CALM      29.94S
ALLENDALE      CLOUDY    79  75  89 SE7       29.91F

...SOUTHERN MIDLANDS AND PEE DEE...

CITY           SKY/WX    TMP DP  RH WIND       PRES   REMARKS
GEORGETOWN     NOT AVBL
KINGSTREE      NOT AVBL
ORANGEBURG     CLOUDY    82  73  74 SE13      29.94S
BARNWELL       FAIR      84  75  74 SE12      29.92R HX  92
AIKEN          NOT AVBL
MANNING        NOT AVBL
COLUMBIA       MOSUNNY   92  69  47 SE13      29.89S HX  97
SUMTER         SUNNY     89  70  52 S14       29.91S HX  94
FLORENCE       MOSUNNY   88  68  51 SW13      29.93S HX  91
MYRTLE BEACH   RAIN      81  73  78 E9        29.96F
N MYRTLE BEACH CLOUDY    80  74  81 CALM      29.96S

$$

GAZ063-065-086>088-099>101-113>116-118-119-134>141-150-032100-
...SOUTHEAST GEORGIA...

CITY           SKY/WX    TMP DP  RH WIND       PRES   REMARKS
SAVANNAH ARPT  CLOUDY    82  73  74 SE9       29.89F
HUNTER AAF     CLOUDY    82  77  85 SE6       29.86F
FORT STEWART   CLOUDY    81  73  78 E6        29.83F
STATESBORO     MOSUNNY   85  78  82 E5        29.89S HX  96
SYLVANIA       CLOUDY    82  78  87 E7        29.92R HX  91
CLAXTON        NOT AVBL

...CSRA...CENTRAL AND FAR SOUTHEAST GEORGIA...

CITY           SKY/WX    TMP DP  RH WIND       PRES   REMARKS
THOMSON        SUNNY     94  71  47 NE10      29.94R HX 100
AUGUSTA-BUSH   MOSUNNY   92  73  53 SE13      29.87F HX 100
AUGUSTA-DANIEL PTSUNNY   92  67  43 N5        29.89F HX  95
SWAINSBORO     RAIN      84  79  84 NE8       29.90S HX  96
VIDALIA        CLOUDY    82  75  78 E16G22    29.88R
EASTMAN        FAIR      91  74  56 N7        29.90F HX 100
HAZLEHURST     FAIR      89  75  62 CALM      29.86S HX  99
ALMA           CLOUDY    86  74  67 N5        29.87S HX  94
WAYCROSS       CLOUDY    88  80  77 NW6       29.86S HX 103
JESUP          CLOUDY    86  79  79 SE3       29.86F HX  99
BAXLEY         CLOUDY    90  77  66 NW3       29.86F HX 102
BRUNSWICK      CLOUDY    86  75  70 S3        29.86F HX  95
SAINT SIMONS   CLOUDY    82  75  79 VRB6      29.86S

$$

SCZ027-028-034-036>038-045-046-048>050-GAZ119-141-032100-
...LAKE AND SUPPLEMENTAL COASTAL OBSERVATIONS...

STATION/POSITION TIME  TEMP    WIND        PRES    WAVE   SWELL
                       AIR SEA DIR/SP/G            HT/PER HT/PER/DIR
                 (UTC) (F)     (DEG/KT/KT) (MB)    (FT/S) (FT/S/D)
UPR LAKE MARION  NOT AVBL
WINYAH BAY       1900   86     190/ 11     1013.0
LAKE MURRAY      2000   89     150/ 11/ 13 1011.2F
ACE BASIN NERRS  NOT AVBL
FORT PULASKI     2000   81 85  140/  8/ 12 1012.5F
SAPELO ISLAND    2000   82     180/  6     1011.0S

$$

ANZ835-935-AMZ111-154-330-350-352-354-370-450-454-472-032100-
...C-MAN AND BUOY OBSERVATIONS...

STATION/POSITION TIME  TEMP    WIND        PRES    WAVE   SWELL
                       AIR SEA DIR/SP/G            HT/PER HT/PER/DIR
                 (UTC) (F)     (DEG/KT/KT) (MB)    (FT/S) (FT/S/D)
BUOY 41004       1950   83 83  190/ 14/ 16 1013.1F   5/ 6   3/ 9
BUOY 41008       1950   80 83  170/ 16/ 19 1011.7R   6/ 7   2/170/ 8
FOLLY BEACH CMAN 2000   83     180/  7/  9 1013.9R
CAPERS NEARSHORE 1908   83     200/ 12/ 14 1013.6F
FRIPP NEARSHORE  1900   84     160/ 10/ 14 1012.6F


STATION/POSITION TIME  TEMP    WIND        PRES    WAVE   SWELL
                       AIR SEA DIR/SP/G            HT/PER HT/PER/DIR
                 (UTC) (F)     (DEG/KT/KT) (MB)    (FT/S) (FT/S/D)
5E ST. MARYS GA  1921      82                N/A     5/ 6
FRYING PAN BUOY  1950   82 82  170/  8/ 10 1015.6R   5/ 7   5/180/ 7
BUOY 41025       1950   75 84  240/ 10/ 14 1016.0F   3/11   3/120/11
CAPE LOOKOUT NC  2000   74     210/ 11/ 14 1015.0F
BUOY 41002       1950   83 81  190/ 12/ 16 1017.0F   5/ 7   3/220/ 7
BUOY 41010       1920   84 84  190/ 17/ 21 1015.5F
ST AUGUSTINE FL  2000   77 79  200/ 12/ 15 1012.4F


$$


USA.gov is the U.S. government's official web portal to all federal, state and local government web resources and services.